Regional Weather Roundup
Issued by NWS Portland, ME

Home | Current Version | Previous Version | Text Only | Print | Product List | Glossary On
Versions: 1 2 3 4 5 6 7 8 9 10 11 12 13 14 15 16 17 18 19 20 21 22 23 24 25 26 27 28 29 30 31 32 33 34 35 36 37 38 39 40 41 42 43 44 45 46 47 48 49 50
000
ASUS41 KGYX 201610
RWRGYX
WEATHER ROUNDUP FOR MAINE AND NEW HAMPSHIRE
NATIONAL WEATHER SERVICE GRAY ME
1100 AM EST SAT DEC 20 2014

MEZ002-005-006-010-012-015-018-020-021-024-026-027-029-201700-
MAINE

CITY           SKY/WX    TMP DP  RH WIND       PRES   REMARKS
PORTLAND       PTSUNNY   30  21  69 NE9       30.33F
SANFORD        SUNNY     28  16  59 NE7       30.31F
BAR HARBOR     CLOUDY    27  23  86 N12       30.33S WCI  16
WISCASSET      SUNNY     29  19  66 NE5       30.34F
ROCKLAND       CLOUDY    25  19  80 N10       30.32F WCI  15
FRYEBURG       SUNNY     28  17  63 VRB3      30.31F
LEWISTONAUBURN SUNNY     27  18  69 NE5       30.31F
AUGUSTA        SUNNY     24  16  71 NE9       30.33S
WATERVILLE     MOSUNNY   25  14  63 NE5       30.30F
BANGOR         CLOUDY    21  17  84 N12       30.36S WCI   9
GREENVILLE       N/A     17  13  84 NW5       30.24S
MILLINOCKET    CLOUDY    17  14  88 CALM      30.37S
HOULTON        CLOUDY    14  11  87 NE3       30.33F
PRESQUE ISLE   CLOUDY    10   0  61 CALM      30.34S
FRENCHVILLE    CLOUDY    15  11  83 NE8       30.30F
CARIBOU        LGT SNOW  15  12  88 NE3       30.33F VSB 1
$$

NHZ002-005-008-009-011-012-014-201700-
NEW HAMPSHIRE

CITY           SKY/WX    TMP DP  RH WIND       PRES   REMARKS
PORTSMOUTH     PTSUNNY   30  21  69 N7        30.29F
ROCHESTER      MOSUNNY   29  19  66 E5        30.30S
NASHUA         MOSUNNY   31  20  63 N7        30.30F
MANCHESTER     MOSUNNY   31  18  58 N6        30.29F
CONCORD        SUNNY     30  18  60 NE6       30.30F
PLYMOUTH       FAIR      26  20  79 CALM      30.29F
BERLIN         SUNNY     15  11  83 CALM      30.26F
WHITEFIELD     SUNNY     18  14  84 CALM      30.27F
JAFFREY        SUNNY     29  18  63 VRB5      30.24F
KEENE          SUNNY     27  18  69 CALM      30.28F
LEBANON        SUNNY     22  16  78 CALM      30.30F
MT WASHINGTON  MOSUNNY   23   1  39 SE13        N/A  WCI  11
$$

VTZ005-007-008-201700-
VERMONT

CITY           SKY/WX    TMP DP  RH WIND       PRES   REMARKS
ST JOHNSBURY     N/A     19  12  74 MISG      30.29F
MONTPELIER     SUNNY     15  12  88 E3        30.30F
BURLINGTON     MOSUNNY   23  14  68 CALM      30.32F
$$

MAZ007-012-024-CTZ003-RIZ002-NYZ038-NYZ072-201700-
SOUTHERN NEW ENGLAND AND NY

CITY           SKY/WX    TMP DP  RH WIND       PRES   REMARKS
BOSTON         CLOUDY    31  22  69 N9        30.28F
WORCESTER      MOSUNNY   30  19  63 NE9       30.23F
NANTUCKET      CLOUDY    40  33  76 N13       30.23F
PROVIDENCE     CLOUDY    33  22  63 N7        30.27F
HARTFORD       CLOUDY    29  18  63 N6        30.28F
ALBANY         PTSUNNY   26  18  71 NW5       30.32F
NEW YORK CITY  CLOUDY    31  20  63 N9        30.30F
$$

ANZ081-ANZ082-ANZ150-NHZ014-MEZ023>029-201700-
COASTAL MARINE OBSERVATIONS

STATION/POSITION TIME  TEMP    WIND        PRES    WAVE
                       AIR SEA DIR/SP/G            HT/PER
                 (UTC) (F)     (DEG/KT/KT) (MB)    (FT/S)
MOUNT DESERT ROC 1600   30                 1025.6S
MATINICUS ROCK   1600           30/  9/ 13 1026.2R
PORTLAND WX BUOY 1550   29 43   60/  6/ 12 1026.4F   2/ 4
WELLS            1512   28 40   20/  8/ 10 1026.2F
ISLE OF SHOALS   1600   30      10/ 21/ 24 1024.8F
JEFFREYS LEDGE   1521      49                N/A     3/ 5
CASHES LEDGE BUO 1550   35 48   30/ 16/ 19 1024.8F   3/ 5
$$

.............KEY..............
   WCI - WIND CHILL
   TC  - TEMPERATURE IN CELSIUS
   VSB - VISIBILITY IN MILES
   HX  - HEAT INDEX
   FAIR- INDICATES FEW OR NO CLOUDS BELOW 12,000 FT, WITH NO
         SIGNIFICANT WEATHER AND/OR OBSTRUCTIONS TO VISIBILITY.





USA.gov is the U.S. government's official web portal to all federal, state and local government web resources and services.